Regional Weather Roundup
Issued by NWS

Home | Current Version | Previous Version | Graphics & Text | Print | Product List | Glossary Off
Versions: 1 2 3 4 5 6 7 8 9 10 11 12 13 14 15 16 17 18 19 20 21 22 23 24 25 26 27 28 29 30 31 32 33 34 35 36 37 38 39 40 41 42 43 44 45 46 47 48 49 50

000
ASUS43 KLSX 201110
RWRMO

WEATHER SUMMARY FOR MISSOURI
NATIONAL WEATHER SERVICE SPRINGFIELD MO
600 AM CDT FRI APR 20 2018

NOTE: "FAIR" INDICATES FEW OR NO CLOUDS BELOW 12,000 FEET WITH NO
       SIGNIFICANT WEATHER AND/OR OBSTRUCTIONS TO VISIBILITY.
       CURRENT SKY AND/OR WEATHER CONDITIONS ARE NOT AVAILABLE FOR
       CHILLICOTHE AND FARMINGTON.

MOZ001>031-035>038-043-044-053-054-201200-
...NORTHERN AND WESTERN MISSOURI...

CITY           SKY/WX    TMP DP  RH WIND       PRES   REMARKS
KANSAS CTY INT CLOUDY    40  29  64 E8        30.41S
KANSAS C DTWN  PTCLDY    40  30  67 E5        30.42S
LEE`S SUMMIT   CLOUDY    38  30  73 E7        30.42S
ST JOSEPH      CLOUDY    30  27  88 NE3       30.42F
CHILLICOTHE      N/A     30  25  81 N3        30.46S
KIRKSVILLE     CLOUDY    30  25  81 NE6       30.47R WCI  24

$$
MOZ066>068-077>081-088>096-101>105-201200-
...SOUTHWEST MISSOURI...

CITY           SKY/WX    TMP DP  RH WIND       PRES   REMARKS
SPRINGFIELD    CLEAR     37  29  72 SE7       30.39R
JOPLIN         CLOUDY    37  31  78 E6        30.40R
BRANSON        CLOUDY    37  32  81 SE6       30.40R

$$
MOZ032>034-039>042-045>050-055>058-069>072-201200-
...CENTRAL MISSOURI...

CITY           SKY/WX    TMP DP  RH WIND       PRES   REMARKS
COLUMBIA       CLEAR     37  27  67 E7        30.44R
JEFFERSON CITY CLEAR     31  28  89 CALM      30.45R
ROLLA          CLOUDY    32  26  78 CALM      30.44R
SEDALIA        CLOUDY    37  30  75 E6        30.44R
WHITEMAN AFB   PTCLDY    32  27  80 CALM      30.39R
WARRENSBURG    CLOUDY    32  30  93 CALM      30.44R
OSAGE BEACH    CLOUDY    29  26  89 CALM      30.44R

$$
MOZ051-052-059>065-201200-
...EAST CENTRAL MISSOURI...

CITY           SKY/WX    TMP DP  RH WIND       PRES   REMARKS
ST LOUIS INTL  PTCLDY    38  27  64 E6        30.46R
SPIRIT OF STL  CLEAR     29  27  92 CALM      30.45S
ST CHARLES     CLEAR     35  27  72 E7        30.46R WCI  29

$$
MOZ072>076-082>087-097>100-106>115-201200-
...SOUTH CENTRAL AND SOUTHEAST MISSOURI...

CITY           SKY/WX    TMP DP  RH WIND       PRES   REMARKS
CAPE GIRARDEAU FAIR      33  30  88 CALM      30.42R
FARMINGTON     CLEAR     30  27  88 NE3       30.43R
POPLAR BLUFF   FAIR      37  33  85 N3        30.42R
WEST PLAINS    CLOUDY    36  29  75 N3        30.41R

$$




USA.gov is the U.S. government's official web portal to all federal, state and local government web resources and services.